This is the latest recevied weather packets stored in our database for station/object N1OF. If no packets are shown the sender has not sent any weather packets the latest 10 day(s).
| Time | Temp. | Humidity | Pressure | Rain* | Wind** | Luminosity | Snow |
|---|---|---|---|---|---|---|---|
| 1777392009 | 18.33° C | 68% | 1013.3 hPa | 0 mm | - | - | - |
| 1777391704 | 18.33° C | 70% | 1013 hPa | 0 mm | - | - | - |
| 1777391401 | 18.33° C | 69% | 1013.1 hPa | 0 mm | - | - | - |
| 1777391098 | 18.33° C | 70% | 1012.6 hPa | 0 mm | - | - | - |
| 1777390794 | 17.78° C | 69% | 1012.8 hPa | 0 mm | - | - | - |
| 1777390490 | 17.78° C | 70% | 1012.6 hPa | 0 mm | - | - | - |
| 1777390187 | 17.78° C | 69% | 1012.5 hPa | 0 mm | - | - | - |
| 1777389884 | 18.33° C | 70% | 1012.6 hPa | 0 mm | - | - | - |
| 1777389580 | 18.33° C | 72% | 1012.2 hPa | 0 mm | - | - | - |
| 1777389277 | 18.33° C | 73% | 1012.2 hPa | 0 mm | - | - | - |
| 1777388975 | 18.33° C | 74% | 1012.3 hPa | 0 mm | - | - | - |
| 1777388672 | 18.33° C | 73% | 1012.3 hPa | 0 mm | - | - | - |
| 1777388368 | 18.33° C | 73% | 1012.2 hPa | 0 mm | - | - | - |
| 1777388068 | 18.33° C | 72% | 1012.3 hPa | 0 mm | - | - | - |
| 1777387765 | 18.89° C | 72% | 1012 hPa | 0 mm | - | - | - |
| 1777387461 | 18.33° C | 73% | 1012 hPa | 0 mm | - | - | - |
| 1777387156 | 18.33° C | 73% | 1012 hPa | 0 mm | - | - | - |
| 1777386852 | 18.33° C | 77% | 1011.8 hPa | 0 mm | - | - | - |
| 1777386549 | 17.78° C | 77% | 1011.9 hPa | 0 mm | - | - | - |
| 1777386246 | 17.78° C | 80% | 1011.9 hPa | 0 mm | - | - | - |
| 1777385943 | 17.78° C | 82% | 1011.9 hPa | 0 mm | - | - | - |
| 1777385640 | 17.78° C | 82% | 1011.9 hPa | 0 mm | - | - | - |
| 1777385337 | 17.78° C | 82% | 1011.8 hPa | 0 mm | - | - | - |
| 1777385033 | 17.78° C | 83% | 1011.8 hPa | 0 mm | - | - | - |
| 1777384730 | 17.78° C | 84% | 1011.9 hPa | 0 mm | - | - | - |
* Rain latest hour (hover to see other rain measurements)
** Current wind speed in m/s (hover to see current wind gust speed)